Weather History for Roswell, NM

Change the Weather History Date:

Thursday, February 21, 2013

  Actual Average Record
Temperature  
Mean Temperature 48 °F 47 °F  
Max Temperature 61 °F 62 °F 85 °F (1920)
Min Temperature 34 °F 32 °F 2 °F (1964)
Degree Days  
Heating Degree Days 17 18  
Month to date heating degree days 389 422  
Since 1 July heating degree days 2302 2588  
Cooling Degree Days 0 0  
Month to date cooling degree days 0 0  
Year to date cooling degree days 0 0  
Moisture  
Dew Point 13 °F    
Average Humidity 27    
Maximum Humidity 42    
Minimum Humidity 11    
Precipitation  
Precipitation 0.00 in 0.02 in 0.29 in (1997)
Month to date precipitation T 0.31  
Year to date precipitation 0.41 0.69  
Sea Level Pressure  
Sea Level Pressure 29.64 in    
Wind  
Wind Speed 13 mph (West)    
Max Wind Speed 26 mph    
Max Gust Speed 36 mph    
Visibility 10 miles    
Events      
T = Trace of Precipitation, MM = Missing Value Source: NWS Daily Summary

Daily Weather History Graph

Daily Weather History Graph

Search for Another Location

Airport:

Trip Planner

Search our weather history database for the weather conditions in past years. The results will help you decide how hot, cold, wet, or windy it might be!

Date:

Astronomy

Feb. 21, 2013 Rise Set
Actual Time 6:35 AM MST 5:48 PM MST
Civil Twilight 6:10 AM MST 6:13 PM MST
Nautical Twilight 5:41 AM MST 6:42 PM MST
Astronomical Twilight 5:12 AM MST 7:11 PM MST
Moon 2:13 PM MST 3:33 AM MST
Length of Visible Light 12h 03m
Length of Day
11h 13m
Waxing Gibbous, 84% of the Moon is Illuminated
Feb 21
Waxing Gibbous
Feb 25
Full
Mar 4
Last Quarter
Mar 11
New
Mar 19
First Quarter

Hourly Weather History & Observations

Time (MST) Temp. Windchill Dew Point Humidity Pressure Visibility Wind Dir Wind Speed Gust Speed Precip Events Conditions
12:51 AM 43.0 °F 36.8 °F 19.0 °F 38% 29.49 in 10.0 mi SSW 11.5 mph - N/A   Clear
1:51 AM 41.0 °F 31.4 °F 17.1 °F 38% 29.47 in 10.0 mi SW 21.9 mph 27.6 mph N/A   Clear
2:51 AM 39.9 °F 29.7 °F 12.9 °F 33% 29.49 in 10.0 mi WSW 23.0 mph 32.2 mph N/A   Clear
3:51 AM 37.9 °F 28.2 °F 12.9 °F 36% 29.51 in 10.0 mi West 18.4 mph - N/A   Clear
5:51 AM 36.0 °F 26.7 °F 12.0 °F 37% 29.54 in 10.0 mi SW 15.0 mph - N/A   Clear
6:51 AM 37.9 °F 29.2 °F 12.9 °F 36% 29.57 in 10.0 mi West 15.0 mph - N/A   Partly Cloudy
7:51 AM 42.1 °F 33.3 °F 19.0 °F 40% 29.59 in 6.0 mi West 19.6 mph 26.5 mph N/A   Haze
8:07 AM 44.6 °F 36.9 °F 19.4 °F 37% 29.66 in 5.0 mi West 18.4 mph 25.3 mph N/A   Haze
8:51 AM 48.9 °F - 19.0 °F 31% 29.60 in 8.0 mi WNW 15.0 mph 23.0 mph N/A   Clear
9:51 AM 53.1 °F - 18.0 °F 25% 29.62 in 10.0 mi WNW 13.8 mph 20.7 mph N/A   Clear
10:51 AM 55.9 °F - 17.1 °F 22% 29.65 in 10.0 mi West 15.0 mph 20.7 mph N/A   Clear
11:51 AM 57.0 °F - 15.1 °F 19% 29.66 in 10.0 mi West 15.0 mph 23.0 mph N/A   Clear
12:51 PM 57.9 °F - 12.0 °F 16% 29.65 in 10.0 mi WNW 15.0 mph 27.6 mph N/A   Clear
1:51 PM 60.1 °F - 10.0 °F 14% 29.63 in 10.0 mi West 18.4 mph 25.3 mph N/A   Clear
2:51 PM 61.0 °F - 7.0 °F 12% 29.63 in 10.0 mi NW 11.5 mph 20.7 mph N/A   Clear
3:51 PM 60.1 °F - 10.0 °F 14% 29.64 in 10.0 mi WSW 8.1 mph - N/A   Clear
4:51 PM 59.0 °F - 8.1 °F 13% 29.65 in 10.0 mi WNW 10.4 mph - N/A   Clear
5:51 PM 54.0 °F - 9.0 °F 17% 29.70 in 10.0 mi West 8.1 mph - N/A   Clear
6:51 PM 48.9 °F - 10.9 °F 22% 29.73 in 10.0 mi WNW 6.9 mph - N/A   Clear
7:51 PM 46.0 °F - 10.9 °F 24% 29.77 in 10.0 mi Calm Calm - N/A   Clear
8:51 PM 41.0 °F 35.2 °F 10.0 °F 28% 29.79 in 10.0 mi SW 9.2 mph - N/A   Clear
9:51 PM 42.1 °F - 10.0 °F 27% 29.78 in 10.0 mi Calm Calm - N/A   Clear
10:51 PM 37.9 °F 30.9 °F 10.9 °F 33% 29.81 in 10.0 mi North 10.4 mph - N/A   Clear
11:51 PM 37.9 °F 34.4 °F 12.0 °F 35% 29.80 in 10.0 mi NNW 4.6 mph - N/A   Clear